Voltar ao catálogo

STARLINK-31601

AtivoComunicaçõesVLEO
NORAD 59209·PAYLOAD·🇺🇸 United States

Lançado Mar 11, 2024 de Vandenberg Space Force Base

Loading…

Próximas Passagens (próximas 24 horas)

TLE

AtualizadoSource: CelesTrak SupGP

Época: Sep 15, 2026, 02:02 UTC

1 59209C 24046J   26258.08520833  .00065737  00000+0  19427-2 0  2583
2 59209  53.1591 351.0538 0001212  90.0369 181.7126 15.34350600    13

Acompanhe STARLINK-31601 em tempo real com AllMySat

Download on the App Store